Location: McMath-Hulbert Observatory
(42.6964°N, 83.3187°W)
Time: 07:21:04
(UTC-05:00)

Daily predictions for brighter satellites

Satellite Brightness Start Highest point End
(mag) Time Altitude Azimuth Time Altitude Azimuth Time Altitude Azimuth
NOAA 12 4.2 18:44:08 10° SSE 18:49:19 58° ENE 18:54:35 10° N
Cosmos 2322 Rocket 3.5 18:44:30 10° NW 18:49:49 45° WSW 18:55:08 10° S
Abrixas rocket 3.6 18:47:07 10° SSW 18:49:56 25° SE 18:52:45 10° E
Meteor 1-28 Rocket 3.2 18:46:31 10° NNE 18:50:20 79° E 18:54:09 10° S
FENGYUN 3A 4.3 18:45:43 10° SE 18:50:30 33° ENE 18:55:18 10° N
Cosmos 407 Rocket 4.1 18:47:40 10° SSW 18:52:52 62° WNW 18:58:10 10° NNE
Tiangong 2 3.9 18:51:30 10° WSW 18:53:04 13° SSW 18:54:39 10° S
FREGAT/IRIS 3.3 18:50:54 10° SE 18:53:45 35° ENE 18:56:36 10° N
Genesis I 3.5 18:50:45 10° NNW 18:54:34 46° NE 18:58:21 10° SE
Okean 1-7 Rocket 4.4 18:52:29 10° NNE 18:56:33 31° ENE 19:00:31 10° SE
Cosmos 1536 Rocket 3.6 18:52:09 10° N 18:56:39 90° E 19:01:08 10° S
Cosmos 1484 Rocket 4.4 18:54:03 10° S 18:57:47 41° W 19:01:30 10° NNW
GPS 2-04 Rocket1 4.4 18:54:51 10° SW 18:58:16 24° SSE 19:01:44 10° ESE
Cosmos 676 Rocket 4.2 18:54:42 10° SSW 18:59:53 77° WNW 19:05:09 10° NNE
Cosmos 1818 4.4 18:58:57 10° SW 19:04:16 54° NW 19:09:39 10° NNE
Cosmos 1633 2.5 19:00:57 10° S 19:04:37 73° E 19:08:18 10° NNE
Cosmos 1140 Rocket 3.4 19:01:38 10° SSW 19:06:45 76° ESE 19:11:56 10° NNE
METEOR-M 4.1 19:02:14 10° SSE 19:07:34 83° ENE 19:12:56 10° NNW
Cosmos 2322 3.7 19:04:03 10° NNW 19:09:49 89° ENE 19:15:31 10° SSE
Cosmos 1570 Rocket 4.1 19:04:46 10° NNW 19:09:55 55° ENE 19:15:03 10° SE
Cosmos 614 Rocket 3.9 19:04:59 10° S 19:09:59 61° ESE 19:14:59 10° NNE
ATLAS CENTAUR R/B 3.5 19:11:53 10° SSE 19:13:43 12° SE 19:14:33 12° SE
Meteor 1-19 Rocket 4.2 19:08:22 10° N 19:14:04 79° ENE 19:19:52 10° SSE
SJ-6B 2.7 19:10:35 10° SSE 19:14:33 72° ENE 19:18:28 10° N
Cosmos 405 Rocket 4.0 19:18:59 10° NNE 19:22:14 22° ENE 19:23:33 19° E
Cosmos 1300 Rocket 3.7 19:18:26 10° S 19:22:51 82° W 19:27:19 10° N
USA 229 DEB 3.9 19:15:51 10° NNW 19:22:52 57° NE 19:29:54 10° SE
USA 229 3.9 19:15:57 10° NNW 19:22:57 57° NE 19:29:56 11° SE
Cosmos 2237 Rocket 3.3 19:21:08 10° N 19:25:47 25° NE 19:28:14 19° E
Helios 1A 4.0 19:23:44 18° ESE 19:25:47 26° ENE 19:29:14 10° NNE
Okean 2 4.1 19:22:09 10° NNE 19:25:53 31° ENE 19:29:22 11° SE
CZ-2D R/B 4.0 19:24:00 14° SE 19:26:40 30° ENE 19:30:02 10° N
Cosmos 2333 4.3 19:21:00 10° NNW 19:26:40 58° ENE 19:32:21 10° SE
Gbstr 26 Del rocket 2.7 19:22:50 10° WSW 19:26:41 76° NNW 19:29:28 17° NE
COSMOS 2428 2.7 19:21:47 10° NNW 19:27:28 67° ENE 19:33:07 10° SSE
Cosmos 2237 4.2 19:21:41 10° NNW 19:27:28 84° ENE 19:33:11 10° SSE
H-2A R/B 3.1 19:24:25 10° SE 19:27:54 41° ENE 19:31:27 10° N
Spot 2 Rocket 3.6 19:23:08 10° SE 19:28:01 53° ENE 19:32:58 10° N
Helios 1B rocket 3.5 19:26:05 10° NE 19:29:24 23° E 19:32:41 10° SSE
Meteor 2-4 Rocket 3.6 19:26:35 10° N 19:32:09 79° E 19:37:32 10° SSE
Cosmos 1238 Rocket 3.3 19:29:30 10° NNW 19:32:20 44° W 19:35:13 10° SSW
NOSS 8 (H) 4.4 19:30:00 10° SW 19:33:21 86° NW 19:36:45 12° NE
Meteor 1-23 Rocket 4.2 19:29:23 10° N 19:35:11 69° ENE 19:40:54 10° SSE
Resurs 01 Rocket 1.5 19:32:24 10° SSE 19:36:46 64° ENE 19:41:08 10° N
SL-19 R/B 4.3 19:31:37 10° SSE 19:37:17 71° ENE 19:43:24 10° NNW
Cosmos 2360 Rocket 3.3 19:33:54 10° NW 19:39:18 46° WSW 19:44:40 10° S
Cosmos 2208 Rocket 4.1 19:34:10 10° NNW 19:39:39 89° WSW 19:45:03 10° SSE
Cosmos 2219 Rocket 2.4 19:34:27 10° NNW 19:39:53 48° ENE 19:43:37 19° SE
Cosmos 1850 Rocket 4.1 19:37:14 10° SSW 19:42:32 83° WNW 19:47:55 10° NNE
Cosmos 1536 2.9 19:39:50 10° SSW 19:43:49 76° W 19:47:49 10° N
Envisat 4.0 19:44:07 25° ENE 19:44:39 26° ENE 19:48:47 10° N
Cosmos 2327 Rocket 4.4 19:39:09 10° S 19:45:19 68° E 19:51:37 10° NNE
Cosmos 2219 3.2 19:40:08 10° SSW 19:45:53 85° ESE 19:51:40 10° NNE
HJ-1C 3.8 19:44:54 10° S 19:48:14 63° W 19:51:36 10° NNW
Cosmos 2227 Rocket 3.0 19:44:44 10° SSE 19:49:27 28° ESE 19:49:27 28° ESE
Resurs 1-3 3.5 19:45:17 10° SSE 19:49:39 74° ENE 19:54:03 10° N
NOSS 3-1 (C) 4.4 19:46:46 10° NNW 19:53:53 46° NE 19:57:53 28° E
SL-16 R/B 3.5 19:56:26 10° N 20:00:38 21° NE 20:00:38 21° NE
Okean 1 Rocket 4.4 19:57:32 10° SSW 20:01:47 41° WNW 20:06:03 10° N
OTV 4 3.1 20:01:48 10° SSW 20:02:21 12° SSW 20:02:21 12° SSW
Cosmos 2074 Rocket 4.1 19:58:46 10° S 20:05:01 80° W 20:11:21 10° N
Cosmos 1892 Rocket 3.4 20:00:57 10° N 20:05:18 66° E 20:06:48 39° SSE
Spot 1 3.8 20:03:53 37° SSE 20:05:22 73° ENE 20:09:33 10° N
USA 186 4.1 20:09:28 14° N 20:09:28 14° N 20:09:57 10° N
SAR-Lupe-1 3.9 20:10:04 83° E 20:10:05 83° ENE 20:13:41 10° NNW
Cosmos 2184 Rocket 4.1 20:04:01 10° SSW 20:10:20 76° W 20:16:37 10° N
SAR-Lupe-4 3.5 20:10:00 52° S 20:10:46 81° WSW 20:14:22 10° NNW
Cosmos 1025 Rocket 3.8 20:07:32 10° NNW 20:11:49 53° W 20:16:05 10° S
ALOS 3.6 20:08:52 10° SSW 20:13:15 40° W 20:17:41 10° NNW
Cosmos 2333 Rocket 2.1 20:16:05 10° NNW 20:21:53 83° ENE 20:23:54 43° SSE
Meteor 2-13 Rocket 4.4 20:18:50 10° S 20:24:54 86° W 20:31:03 10° N
Cosmos 1980 3.6 20:19:28 10° NNW 20:25:08 71° ENE 20:26:08 58° ESE
Cosmos 841 Rocket 4.2 20:20:41 10° N 20:24:32 37° NE 20:24:32 37° NE
Abrixas rocket 3.5 20:23:17 10° WSW 20:25:43 41° W 20:25:43 41° W
Nadezhda 3 Rocket 3.8 20:21:54 10° N 20:28:05 80° E 20:31:35 28° SSE
Cosmos 1544 Rocket 3.5 20:25:40 10° S 20:30:00 80° W 20:34:21 10° N
GEOS 3 Rocket 3.9 20:32:27 24° NNE 20:35:39 66° NW 20:40:53 10° SW
Cosmos 2341 Rocket 3.9 20:30:32 10° S 20:36:51 70° E 20:43:13 10° NNE
Cosmos 1763 Rocket 3.7 20:32:04 10° NNW 20:36:23 56° NNE 20:36:23 56° NNE
GPS 2-04 Rocket1 4.4 20:33:45 10° WSW 20:36:30 28° SSW 20:36:30 28° SSW
Cosmos 2154 Rocket 4.0 20:33:15 10° S 20:39:37 85° W 20:46:00 10° N
NOSS 0 Rocket 4.0 20:33:47 10° NNW 20:39:57 74° WSW 20:42:07 42° S
Helios 1B rocket 4.2 21:01:03 10° N 21:04:43 31° WNW 21:08:21 10° SW
Cosmos 2237 Rocket 2.7 21:04:37 10° NNW 21:10:07 56° WSW 21:10:07 56° WSW
Cosmos 2297 Rocket 4.2 21:07:10 10° SSW 21:08:19 17° SSW 21:08:19 17° SSW
Envisat 4.3 21:24:19 37° WNW 21:24:19 37° WNW 21:28:15 10° NNW
Cosmos 2219 Rocket 4.1 21:19:02 10° NW 21:23:30 25° WSW 21:25:25 21° SW
NOSS 3-1 (A) 4.0 21:19:06 10° NW 21:26:46 79° WSW 21:26:48 79° SW
ATLAS 2AS CENTAUR R/B 3.8 21:25:00 10° NNW 21:31:17 41° NNE 21:31:17 41° NNE
Cosmos 2227 Rocket 3.6 21:27:54 10° SW 21:31:29 34° WSW 21:31:29 34° WSW
SL-16 R/B 3.8 21:39:43 10° NNW 21:42:33 30° NW 21:42:33 30° NW
